Flag Weather past 2 weeks in Lugano, Switzerland

Now
55 °F

Sunny.


Feels Like: 55 °F
Forecast: 37 / 62 °F
Wind: 2 mph from North

Location: Lugano Airport

Current Time: Nov 24, 2014 at 3:02:23 PM

Latest Report: Nov 24, 2014 at 2:20 PM


Visibility: 10 mi

Pressure: 30.18 "Hg

Humidity: 63%

Dew point: 43 °F

Location of LuganoLocation

Historic Weather in Lugano — Graph

°F

Lugano temperature yesterday

Maximum temperature yesterday: 59 °F (at 2:20 PM)
Minimum temperature yesterday: 34 °F (at 2:20 AM)
Average temperature yesterday: 43 °F

Past Weeks' High & Low Weather Summary

 TemperatureHumidityPressure
High61 °F (Nov 13, 2:20 PM)100% (Nov 9, 8:50 PM)30.36 "Hg (Nov 9, 8:50 PM)
Low32 °F (Nov 19, 8:20 AM)48% (Nov 19, 2:20 PM)29.53 "Hg (Nov 15, 7:20 PM)
Average47 °F91%29.96 "Hg
* Reported Nov 9 1:20 PM — Nov 24 1:50 PM, Lugano, Weather by CustomWeather, © 2014

Note: Actual official high and low records may vary slightly from our data, if they occured in-between our weather recording intervals... More about our weather records

Advertising

Lugano weather history for previous 24 hours

 ConditionsComfort  
Time TempWeatherWind HumidityBarometerVisibility
1:50 PM
Nov 24
55 °FSunny.3 mph63%30.18 "Hg10 mi
1:20 PM55 °FSunny.1 mph63%30.21 "Hg10 mi
12:50 PM54 °FSunny.2 mph67%30.21 "Hg10 mi
12:20 PM52 °FSunny.2 mph77%30.24 "Hg10 mi
11:50 AM52 °FSunny.1 mph77%30.24 "Hg10 mi
11:20 AM50 °FSunny.No wind82%30.24 "Hg10 mi
10:50 AM48 °FSunny.1 mph87%30.27 "Hg10 mi
10:20 AM48 °FSunny.1 mph87%30.27 "Hg10 mi
9:50 AM46 °FSunny.1 mph93%30.27 "Hg10 mi
9:20 AM46 °FSunny.1 mph87%30.27 "Hg10 mi
8:50 AM45 °FSunny.1 mph93%30.27 "Hg10 mi
8:20 AM43 °FSunny.3 mph100%30.27 "Hg10 mi
7:50 AM43 °FSunny.5 mph93%30.27 "Hg10 mi
7:20 AM43 °FPassing clouds.5 mph93%30.27 "HgN/A
6:50 AM43 °FPassing clouds.1 mph93%30.27 "HgN/A
6:20 AM43 °FSprinkles. Passing clouds.1 mph93%30.27 "HgN/A
5:50 AM43 °FPassing clouds.3 mph93%30.27 "HgN/A
5:20 AM41 °FClear.1 mph93%30.27 "Hg4 mi
4:50 AM41 °FClear.1 mph100%30.27 "HgN/A
4:20 AM39 °FClear.5 mph100%30.27 "Hg10 mi
3:50 AM41 °FClear.1 mph100%30.27 "Hg6 mi
3:20 AM43 °FClear.1 mph100%30.27 "Hg4 mi
2:50 AM43 °FClear.2 mph100%30.27 "Hg10 mi
2:20 AM43 °FClear.6 mph100%30.30 "Hg10 mi
1:50 AM43 °FClear.1 mph100%30.30 "Hg10 mi
1:20 AM45 °FClear.1 mph93%30.30 "Hg10 mi
12:50 AM45 °FClear.2 mph93%30.30 "HgN/A
12:20 AM45 °FPassing clouds.3 mph93%30.30 "HgN/A
11:50 PM
Nov 23
45 °FClear.1 mph93%30.30 "Hg10 mi
11:20 PM43 °FClear.3 mph100%30.30 "HgN/A
10:50 PM45 °FClear.2 mph93%30.30 "Hg10 mi
10:20 PM45 °FClear.1 mph93%30.30 "Hg10 mi
9:20 PM45 °FClear.1 mph93%30.30 "Hg10 mi
8:50 PM45 °FClear.5 mph93%30.30 "Hg10 mi
8:20 PM43 °FClear.6 mph100%30.30 "Hg10 mi
7:50 PM45 °FClear.1 mph93%30.30 "Hg10 mi
7:20 PM45 °FClear.2 mph93%30.30 "Hg10 mi
6:50 PM45 °FClear.2 mph93%30.30 "Hg10 mi
6:20 PM45 °FClear.1 mph93%30.30 "Hg10 mi
5:50 PM45 °FClear.2 mph93%30.30 "Hg10 mi
5:20 PM46 °FClear.2 mph93%30.27 "Hg10 mi
4:50 PM48 °FClear.2 mph82%30.27 "Hg10 mi
4:20 PM52 °FSunny.2 mph77%30.27 "Hg10 mi
3:50 PM59 °FSunny.No wind59%30.27 "Hg10 mi
3:20 PM55 °FSunny.2 mph59%30.27 "Hg10 mi
Weather by CustomWeather, © 2014

See weather overviewHow to use our weather pages